Topeka, KS

9:52 AM CDT on April 19, 2018 (GMT -0500)
Billard Municipal

Weather History for KTOP - March, 2013

Change the Weather History Date:

Sunday, March 3, 2013

  Actual Average Record
Temperature  
Mean Temperature 36 °F 40 °F  
Max Temperature 45 °F 51 °F 80 °F (1910)
Min Temperature 27 °F 29 °F -3 °F (2014)
Degree Days  
Heating Degree Days 29 25  
Month to date heating degree days 99 76  
Since 1 July heating degree days 3656 4043  
Cooling Degree Days 0 0  
Month to date cooling degree days 0 0  
Year to date cooling degree days 0 0  
Moisture  
Dew Point 25 °F    
Average Humidity 64    
Maximum Humidity 75    
Minimum Humidity 53    
Precipitation  
Precipitation 0.00 in 0.06 in 0.80 in (1944)
Month to date precipitation T 0.18  
Year to date precipitation 2.44 2.36  
Snow  
Snow 0.00 in 0.10 in 5.90 in (1953)
Month to date snowfall 0.0 0.2  
Year to date snowfall 16.0 9.6  
Since 1 July snowfall 21.4 16.1  
Snow Depth 2.00 in    
Sea Level Pressure  
Sea Level Pressure 29.93 in    
Wind  
Wind Speed 10 mph (SE)    
Max Wind Speed 16 mph    
Max Gust Speed 22 mph    
Visibility 10 miles    
Events      
T = Trace of Precipitation, MM = Missing Value Source: NWS Daily Summary

Daily Weather History Graph

Daily Weather History Graph

Search for Another Location

Airport or City:

Trip Planner

Search our weather history database for the weather conditions in past years. The results will help you decide how hot, cold, wet, or windy it might be!

Date:

Astronomy

Mar. 03, 2013 Rise Set
Actual Time 6:51 AM CST 6:17 PM CST
Civil Twilight 6:24 AM CST 6:44 PM CST
Nautical Twilight 5:54 AM CST 7:15 PM CST
Astronomical Twilight 5:23 AM CST 7:46 PM CST
Moon No Moon Rise 10:10 AM CST (3/3)
Length of Visible Light 12h 19m
Length of Day
11h 25m
Waning Gibbous, 63% of the Moon is Illuminated
Mar 3
Waning Gibbous
Mar 4
Last Quarter
Mar 11
New
Mar 19
First Quarter
Mar 27
Full

Hourly Weather History & Observations

Time (CST) Temp. Windchill Dew Point Humidity Pressure Visibility Wind Dir Wind Speed Gust Speed Precip Events Conditions
12:53 AM 30.0 °F 25.2 °F 21.0 °F 69% 30.18 in 7.0 mi SE 4.6 mph - N/A   Clear
1:53 AM 28.0 °F 22.8 °F 21.0 °F 75% 30.16 in 7.0 mi SE 4.6 mph - N/A   Clear
2:53 AM 28.0 °F 20.8 °F 19.9 °F 72% 30.13 in 7.0 mi SE 6.9 mph - N/A   Clear
3:53 AM 28.0 °F 22.8 °F 19.9 °F 72% 30.11 in 7.0 mi SE 4.6 mph - N/A   Clear
4:53 AM 27.0 °F 20.5 °F 19.9 °F 75% 30.08 in 8.0 mi ESE 5.8 mph - N/A   Mostly Cloudy
5:53 AM 28.4 °F 21.2 °F 19.4 °F 69% 30.05 in 10.0 mi SE 6.9 mph - N/A   Mostly Cloudy
6:53 AM 28.9 °F 21.9 °F 19.9 °F 69% 30.05 in 10.0 mi SE 6.9 mph - N/A   Clear
7:53 AM 30.0 °F 21.7 °F 21.0 °F 69% 30.04 in 10.0 mi SE 9.2 mph - N/A   Clear
8:53 AM 33.1 °F 26.1 °F 21.9 °F 64% 30.03 in 10.0 mi SE 8.1 mph - N/A   Clear
9:53 AM 37.0 °F 28.5 °F 23.0 °F 57% 30.00 in 10.0 mi South 13.8 mph - N/A   Clear
10:53 AM 39.0 °F 32.3 °F 24.1 °F 55% 29.99 in 10.0 mi South 10.4 mph - N/A   Clear
11:53 AM 41.0 °F 33.9 °F 27.0 °F 57% 29.96 in 10.0 mi SSE 12.7 mph - N/A   Clear
12:53 PM 43.0 °F 36.8 °F 27.0 °F 53% 29.92 in 10.0 mi South 11.5 mph - N/A   Clear
1:53 PM 43.0 °F 36.4 °F 28.0 °F 56% 29.89 in 10.0 mi SSE 12.7 mph - N/A   Clear
2:53 PM 43.0 °F 36.8 °F 28.0 °F 56% 29.86 in 10.0 mi SE 11.5 mph - N/A   Clear
3:53 PM 43.0 °F 36.8 °F 28.9 °F 58% 29.85 in 10.0 mi ESE 11.5 mph - N/A   Clear
4:53 PM 44.1 °F 38.6 °F 28.9 °F 55% 29.83 in 10.0 mi ESE 10.4 mph - N/A   Clear
5:53 PM 42.1 °F 35.2 °F 28.9 °F 60% 29.80 in 10.0 mi East 12.7 mph - N/A   Clear
6:53 PM 41.0 °F 33.5 °F 28.0 °F 60% 29.82 in 10.0 mi ESE 13.8 mph - N/A   Clear
7:53 PM 39.9 °F 32.5 °F 28.0 °F 63% 29.81 in 10.0 mi ESE 12.7 mph - N/A   Clear
8:53 PM 39.9 °F 32.1 °F 28.0 °F 63% 29.79 in 10.0 mi ESE 13.8 mph - N/A   Clear
9:53 PM 39.9 °F 32.9 °F 28.9 °F 65% 29.77 in 10.0 mi East 11.5 mph - N/A   Clear
10:53 PM 39.0 °F 33.4 °F 28.9 °F 67% 29.75 in 10.0 mi East 8.1 mph - N/A   Clear
11:53 PM 39.9 °F 33.4 °F 28.9 °F 65% 29.71 in 10.0 mi ESE 10.4 mph - N/A   Clear